Location: Cahas Mountain Overlook
(37.0833°N, 80.1000°W)
Time: 02:52:23
(UTC-04:00)

Envisat - Visible Passes

Search period start: 15 June 2024 00:00
Search period end: 25 June 2024 00:00
Orbit: 762 x 764 km, 98.3° (Epoch: 14 June)

Date Brightness Start Highest point End Pass type
(mag) Time Alt. Az. Time Alt. Az. Time Alt. Az.
15 Jun 5.6 03:12:39 10° ENE 03:14:09 11° E 03:15:37 10° ESE visible
15 Jun 3.0 04:48:31 10° N 04:53:34 71° WNW 04:58:28 11° SSW visible
16 Jun 3.8 04:11:17 10° NNE 04:16:12 48° E 04:20:38 12° S visible
17 Jun 5.1 03:34:53 10° NE 03:38:37 20° E 03:42:20 10° SE visible
17 Jun 3.6 05:12:58 10° N 05:17:41 40° WNW 05:22:24 10° SW visible
18 Jun 3.0 04:35:22 10° NNE 04:40:27 86° ESE 04:45:09 12° SSW visible
19 Jun 4.3 03:58:22 10° NNE 04:03:01 36° E 04:07:19 12° SSE visible
20 Jun 5.4 03:22:29 10° ENE 03:25:22 15° E 03:28:14 10° SE visible
20 Jun 3.2 04:59:41 10° N 05:04:38 54° WNW 05:09:32 10° SSW visible
21 Jun 3.3 04:22:16 10° NNE 04:27:18 64° E 04:31:48 13° S visible
22 Jun 4.7 03:45:33 10° NE 03:49:48 27° E 03:53:58 10° SSE visible
22 Jun 3.9 05:24:16 10° N 05:28:43 31° WNW 05:33:08 10° SW visible
23 Jun 5.6 03:10:53 10° ENE 03:12:05 11° E 03:13:16 10° ESE visible
23 Jun 3.0 04:46:28 10° N 04:51:31 74° WNW 04:56:17 12° SSW visible
24 Jun 3.8 04:09:16 10° NNE 04:14:09 47° E 04:18:27 13° S visible
